This demonstration page uses our WeatherBlox Daily Observations layout. Learn more.

36.17497, -115.13722

Hourly Observations for April 22, 2018

Temp ( °F °C ) Dew Point ( °F °C ) Humidity (%) Winds ( mph kmh ) Pressure ( in mb ) Visibility ( mi km ) Precip ( " mm )
12:53 am 00:53 Clear 67 19.4 27 -2.8 22 22 NNW 7 11 29.97 1015 10 16.09344 0 0
1:53 am 01:53 Clear 69 20.6 23 -5 17 17 NNW 9 15 29.94 1014 10 16.09344 0 0
2:53 am 02:53 Clear 65 18.3 27 -2.8 24 24 SSE 3 6 29.94 1014 10 16.09344 0 0
3:53 am 03:53 Clear 64 17.8 28 -2.2 26 26 WNW 5 7 29.94 1014 10 16.09344 0 0
4:53 am 04:53 Clear 64 17.8 30 -1.1 28 28 WNW 3 6 29.94 1014 10 16.09344 0 0
5:53 am 05:53 Clear 60 15.6 29 -1.7 31 31 NW 7 11 29.97 1015 10 16.09344 0 0
6:53 am 06:53 Sunny 63 17.2 27 -2.8 26 26 NW 7 11 29.97 1015 10 16.09344 0 0
7:53 am 07:53 Sunny 68 20 27 -2.8 21 21 W 3 6 29.97 1015 10 16.09344 0 0
8:53 am 08:53 Sunny 73 22.8 24 -4.4 16 16 Calm 29.97 1015 10 16.09344 0 0
9:53 am 09:53 Sunny 75 23.9 24 -4.4 15 15 ESE 5 7 29.97 1015 10 16.09344 0 0
10:53 am 10:53 Sunny 78 25.6 21 -6.1 12 12 ESE 3 6 29.94 1014 10 16.09344 0 0
11:53 am 11:53 Sunny 82 27.8 20 -6.7 10 10 N 5 7 29.91 1013 10 16.09344 0 0
12:53 pm 12:53 Sunny 84 28.9 18 -7.8 8 8 N 5 7 29.91 1013 10 16.09344 0 0
1:53 pm 13:53 Sunny 86 30 19 -7.2 8 8 SE 7 11 29.88 1012 10 16.09344 0 0
2:53 pm 14:53 Sunny 87 30.6 19 -7.2 8 8 N 3 6 29.83 1010 10 16.09344 0 0
3:53 pm 15:53 Sunny 88 31.1 18 -7.8 7 7 SE 9 15 29.83 1010 10 16.09344 0 0
4:53 pm 16:53 Sunny 89 31.7 17 -8.3 7 7 N 6 9 29.8 1009 10 16.09344 0 0
5:53 pm 17:53 Sunny 89 31.7 14 -10 6 6 E 7 11 29.77 1008 10 16.09344 0 0
6:53 pm 18:53 Sunny 87 30.6 16 -8.9 7 7 SE 10 17 29.77 1008 10 16.09344 0 0
7:53 pm 19:53 Clear 84 28.9 18 -7.8 8 8 S 5 7 29.8 1009 10 16.09344 0 0
8:53 pm 20:53 Clear 81 27.2 18 -7.8 9 9 S 6 9 29.8 1009 10 16.09344 0 0
9:53 pm 21:53 Clear 81 27.2 17 -8.3 9 9 N 5 7 29.83 1010 10 16.09344 0 0
10:53 pm 22:53 Clear 77 25 16 -8.9 10 10 SSW 9 15 29.83 1010 10 16.09344 0 0
11:53 pm 23:53 Clear 75 23.9 17 -8.3 11 11 WSW 5 7 29.83 1010 10 16.09344 0 0

Powered by AerisWeather